Temp
11 10 9 9 8 10 10 9 10 10 9 9 8 8 7 6 6 7 7 7 7 7 6 7 6 5 5 5 6 6 7 7
10 9 8 8 8 8 9 9 9 9 7 7 6 5 5 4 4 5 5 6 6 6 4 4 4 4 4 5 5 6 7 6
11 9 8 8 8 7 8 8 8 8 8 8 7 5 3 3 3 4 5 5 5 5 4 3 3 4 4 4 4 6 6 6
11 9 8 8 7 7 7 7 7 8 8 8 7 5 4 3 3 2 3 3 4 3 3 3 3 3 3 3 3 4 5 5
12 10 8 7 7 6 6 7 7 7 7 7 6 6 5 2 2 1 1 3 3 3 3 1 1 2 2 3 3 3 4 4
12 10 8 7 6 5 5 5 5 6 6 6 6 5 3 2 1 1 1 2 2 2 2 1 1 1 1 1 2 2 2 3
12 10 8 6 5 4 4 4 4 5 6 6 6 4 2 2 1 1 1 0 -0 1 0 0 0 1 1 0 0 0 1 1
11 9 8 6 4 3 3 3 3 3 4 4 4 3 2 2 1 1 1 0 -0 -0 -0 -0 -0 -0 -0 -1 -1 -1 -1 -1
11 10 8 6 4 3 3 3 2 2 2 2 2 2 1 1 1 0 0 -0 -1 -1 -1 -1 -1 -1 -1 -2 -2 -2 -2 -2
10 9 7 5 4 3 3 3 2 2 1 1 1 1 1 0 -0 -1 -1 -1 -1 -1 -2 -2 -2 -2 -2 -2 -3 -3 -3 -3
10 8 7 5 4 3 2 2 2 1 1 1 1 0 -0 -1 -1 -1 -1 -1 -1 -2 -2 -2 -3 -3 -3 -3 -3 -4 -4 -4
9 8 6 5 4 3 2 2 2 1 1 1 0 -0 -1 -1 -2 -2 -2 -2 -3 -3 -3 -3 -4 -4 -4 -4 -4 -5 -4 -4
9 7 5 4 3 3 2 2 2 1 1 -0 -0 -0 -1 -1 -2 -2 -2 -2 -3 -3 -4 -4 -4 -5 -5 -5 -5 -5 -5 -5
8 7 6 4 3 2 2 1 1 1 -0 -0 -1 -1 -1 -2 -3 -3 -3 -4 -4 -4 -4 -4 -5 -5 -5 -5 -5 -5 -5 -6
7 6 5 4 3 2 2 1 1 0 0 -0 -1 -1 -2 -3 -4 -4 -4 -4 -4 -4 -4 -5 -6 -6 -5 -6 -6 -6 -6 -6
6 6 5 4 3 3 2 1 1 0 -0 -1 -1 -2 -3 -3 -4 -5 -5 -5 -5 -4 -4 -5 -5 -6 -6 -6 -6 -6 -6 -6
6 6 5 4 4 3 2 1 0 0 -1 -1 -2 -3 -4 -4 -5 -5 -5 -6 -5 -5 -5 -5 -6 -6 -8 -7 -7 -6 -7 -7
7 6 5 4 3 2 1 1 0 -0 -1 -2 -3 -4 -4 -5 -5 -6 -6 -6 -6 -6 -6 -6 -6 -7 -8 -8 -8 -8 -8 -8
8 7 5 4 2 1 1 0 -1 -1 -2 -2 -3 -4 -5 -6 -6 -6 -7 -7 -7 -7 -7 -7 -7 -7 -8 -9 -9 -8 -9 -9
Height
795 800 803 806 808 808 809 813 814 817 820 821 822 823 824 825 826 825 825 824 824 823 822 822 821 821 821 819 818 817 815 814
795 798 801 804 806 807 808 812 813 815 819 821 822 823 824 825 826 825 825 824 823 823 822 822 822 822 821 819 817 816 816 814
789 794 797 801 802 805 807 810 813 815 819 819 821 822 824 825 826 826 825 824 824 823 823 823 823 823 822 821 819 818 816 816
782 789 793 797 799 801 804 807 810 813 817 819 820 822 824 826 827 827 826 826 825 825 825 825 824 825 826 825 823 821 818 818
774 780 787 792 797 798 801 804 807 811 813 817 819 821 823 826 828 828 828 827 827 827 826 826 827 827 827 825 822 820 818 819
760 769 778 786 792 797 799 804 807 809 812 815 817 819 823 826 828 829 829 829 829 829 828 829 829 829 827 825 821 818 817 818
760 769 777 783 788 793 796 801 805 808 810 813 816 819 823 826 828 829 831 832 832 831 830 831 830 829 827 824 823 822 823 824
754 761 768 777 783 789 793 798 803 806 809 812 816 820 823 825 828 830 831 832 832 831 831 832 830 828 826 826 826 826 826 825
746 755 764 772 779 786 791 796 800 803 807 810 814 819 823 825 827 831 832 831 831 831 831 831 830 828 827 827 828 829 831 827
745 755 761 768 776 782 788 794 798 801 806 810 814 819 821 824 828 829 831 830 831 831 832 832 832 832 830 829 829 831 833 831
746 754 760 766 774 780 787 793 796 799 804 808 812 817 821 825 826 828 829 828 829 831 831 831 830 830 829 828 829 832 834 833
744 752 762 766 772 778 785 791 794 799 802 805 810 814 820 823 826 828 829 827 829 830 831 830 831 830 830 831 831 833 834 833
740 747 753 760 764 772 779 787 792 797 799 802 807 812 816 819 823 825 827 826 827 830 831 829 832 830 833 832 835 835 837 836
741 746 752 756 759 765 771 778 786 791 796 800 805 809 813 818 822 823 826 827 828 830 828 830 830 831 832 833 837 837 838 840
740 747 751 752 754 760 768 776 779 786 793 798 802 809 813 818 820 821 824 827 830 831 829 828 828 831 833 833 838 843 843 842
738 743 749 753 756 759 765 771 774 781 789 794 799 806 814 816 818 822 825 826 828 829 832 828 828 832 834 837 839 844 844 843
738 738 741 746 753 757 765 768 771 776 786 794 799 803 811 816 817 819 826 831 828 828 830 829 831 837 838 836 843 845 844 846
732 736 738 740 751 754 759 770 773 777 783 790 798 805 810 814 817 821 826 828 827 828 829 832 832 838 840 840 844 846 846 848
726 731 734 737 746 756 759 767 771 777 782 788 796 804 810 814 820 821 826 827 828 829 830 834 838 843 843 844 847 848 847 849
Wind_Speed
19 17 16 16 16 17 18 17 18 16 15 15 14 13 13 12 12 13 12 12 12 10 10 10 9 8 9 10 9 10 8 15
17 17 17 16 16 17 17 18 19 19 15 12 9 9 10 10 11 12 13 13 13 13 12 11 11 12 11 12 11 12 10 17
21 20 19 18 18 16 17 17 19 17 13 10 7 10 10 10 11 12 13 13 13 13 13 12 13 11 13 13 13 11 10 15
19 23 22 19 18 18 18 18 19 18 14 12 12 11 8 7 8 10 13 13 14 14 14 13 13 12 11 10 10 11 9 11
20 24 24 23 19 18 18 18 19 19 18 13 12 6 7 6 7 9 10 12 13 13 14 12 11 9 9 9 11 12 12 13
24 25 29 25 21 19 18 17 15 18 17 14 10 9 10 10 9 10 11 12 13 13 12 11 10 10 11 12 13 14 12 9
19 26 27 25 22 21 19 18 16 16 17 15 14 14 13 12 10 10 10 9 10 12 11 10 11 11 13 13 14 15 12 9
21 23 28 28 26 23 21 20 18 18 18 17 15 14 12 13 11 10 9 8 8 10 9 9 11 12 13 13 13 12 10 9
21 22 28 29 28 25 22 21 21 20 19 19 17 15 12 12 10 9 8 9 9 9 10 10 11 12 12 11 11 10 10 11
19 22 27 30 29 27 25 23 21 20 19 18 17 15 14 13 11 10 8 9 9 9 9 11 11 11 12 11 12 11 9 9
17 19 27 28 28 27 24 22 23 21 20 19 17 16 14 13 13 11 10 10 10 9 9 10 10 10 11 11 10 10 9 9
16 17 24 27 28 26 24 23 23 22 21 20 20 18 16 14 13 11 9 10 10 9 9 10 10 11 11 10 10 10 10 10
17 20 28 30 31 29 27 24 24 23 22 23 22 21 18 16 13 11 10 10 11 10 10 11 11 13 11 12 11 11 12 12
14 16 21 27 28 29 29 29 27 27 25 24 22 21 19 16 14 12 10 10 11 11 12 11 12 12 13 13 12 11 10 11
15 16 17 25 29 30 30 28 30 31 28 24 22 20 18 15 14 12 11 11 11 10 11 12 13 12 12 12 10 8 8 9
14 15 15 23 26 28 28 29 31 32 29 25 23 20 17 16 14 12 11 11 12 12 11 13 14 12 10 9 10 6 7 9
14 16 17 23 26 26 26 28 30 30 27 22 22 21 18 15 14 13 11 11 12 12 12 14 15 12 12 13 10 9 10 8
15 16 15 20 21 24 25 25 27 28 27 26 22 19 18 15 14 13 13 12 13 14 15 14 15 13 13 13 12 11 12 12
13 11 15 20 22 20 24 28 27 27 27 30 24 20 17 16 14 15 14 14 16 15 16 15 15 12 12 13 13 13 15 15
Wind_Direction
183 175 166 162 160 155 152 158 154 148 139 128 115 103 90 80 69 64 61 59 58 60 54 44 39 35 27 19 15 9 3 343
180 174 170 165 163 160 161 165 164 159 151 140 127 113 97 82 69 64 60 57 54 54 52 45 42 39 32 25 21 15 10 357
186 179 175 176 167 164 169 173 174 173 172 164 146 131 102 89 76 64 60 57 54 51 48 43 39 37 32 29 27 21 25 20
185 182 183 178 172 172 174 176 180 183 186 167 147 126 108 85 72 66 59 58 56 55 53 49 45 44 40 38 35 33 26 27
188 184 182 182 179 173 172 174 176 183 184 177 166 156 140 123 101 87 77 71 68 67 63 59 57 56 50 47 44 44 39 30
187 184 180 180 172 169 162 161 163 172 172 173 173 146 132 128 116 102 84 75 74 72 69 64 61 59 57 55 50 47 47 50
188 181 173 173 169 166 161 157 155 157 163 164 161 148 142 136 124 106 91 84 80 76 73 71 66 62 55 52 48 44 43 42
184 179 175 170 168 164 159 157 152 154 153 150 150 144 138 133 126 118 112 99 85 78 76 67 60 56 56 54 46 45 42 45
188 182 174 170 167 165 162 159 153 154 152 147 146 143 139 133 129 128 108 99 91 81 74 70 63 60 61 59 50 45 35 41
186 182 175 169 168 167 164 162 157 154 150 145 141 142 138 135 134 128 111 97 88 83 75 72 65 59 58 59 50 43 35 35
183 180 175 171 169 167 166 165 159 154 151 147 145 142 139 141 135 126 116 105 103 99 90 81 72 66 61 63 59 47 44 38
181 176 174 168 165 166 165 164 158 158 155 150 147 145 148 143 138 130 118 112 109 105 100 92 78 70 66 70 67 58 50 46
181 177 172 172 167 166 167 166 165 164 157 153 154 156 153 148 145 139 131 119 115 112 107 92 81 72 71 70 65 57 46 42
179 174 178 174 166 167 168 169 167 163 161 157 157 158 157 155 150 136 125 119 115 111 104 96 86 81 75 69 63 56 53 44
183 185 183 176 171 170 170 171 164 165 164 162 158 161 157 154 145 135 129 121 120 117 108 99 89 81 76 72 70 65 61 52
189 190 187 181 177 175 173 170 165 167 167 165 161 156 158 152 142 135 128 131 130 119 116 94 84 78 78 85 77 79 74 61
207 192 185 189 185 177 175 171 167 165 161 161 159 156 153 153 145 134 132 135 126 118 110 95 88 84 86 89 91 84 78 67
212 203 196 180 189 177 169 173 162 161 157 157 157 157 154 151 145 142 142 139 131 121 111 105 102 101 96 96 97 91 81 71
213 196 188 174 173 177 163 163 162 159 154 162 161 159 154 149 150 143 141 140 131 123 114 113 106 105 113 108 103 97 88 76